Location: Gorze? G�rny
(49.8500°N, 19.5000°E)
Time: 12:59:41
(UTC+00:00)

Cosmos 1544 - Pass Details

Date: 13 May 2021
Orbit: 471 x 487 km, 82.5° (Epoch: 22 June)

Event Time Altitude Azimuth Distance (km) Brightness Sun altitude
Rises 20:38:14 0° 349° (N) 2,541 8.1 -16.6°
Reaches altitude 10° 20:40:19 10° 349° (NNW) 1,659 6.9 -16.7°
Maximum altitude 20:43:57 83° 263° (W) 489 3.0 -17.0°
Enters shadow 20:45:10 40° 178° (S) 723 3.5 -17.1°
